Weather Roundup
Issued by NWS Corpus Christi, TX

Home | Current Version | Previous Version | Text Only | Print | Product List | Glossary On
Versions: 1 2 3 4 5 6 7 8 9 10 11 12 13 14 15 16 17 18 19 20 21 22 23 24 25 26 27 28 29 30 31 32 33 34 35 36 37 38 39 40 41 42 43 44 45 46 47 48 49 50
000
ASUS44 KCRP 192310
HRRCRP

SOUTH TEXAS REGIONAL WEATHER ROUNDUP
NATIONAL WEATHER SERVICE CORPUS CHRISTI TX
600 PM CDT SUN APR 19 2015


TXZ229>244-200000-
...CORPUS CHRISTI AREA OBSERVATIONS...

CITY           SKY/WX    TMP DP  RH WIND       PRES   REMARKS
CORPUS CHRISTI PTSUNNY   82  75  79 S9        29.74S
NAS CORPUS CHR PTSUNNY   80  69  69 S10       29.75F
ROCKPORT       PTSUNNY   77  72  84 S8        29.74S
KINGSVILLE NAS CLOUDY    83  76  79 SE5       29.74F HX  91
ALICE          PTSUNNY   84  71  65 SW6       29.75S
FALFURRIAS     CLOUDY    83  72  68 CALM      29.75R
$$

...VICTORIA AREA OBSERVATIONS...

CITY           SKY/WX    TMP DP  RH WIND       PRES   REMARKS
VICTORIA       SUNNY     83  72  69 S12       29.73S
BEEVILLE       FAIR      83  71  66 SW6       29.75S
PLEASANTON     SUNNY     87  62  42 W6        29.75S
SAN ANTONIO    MOSUNNY   89  50  26 W10       29.74S
$$

...LAREDO AREA OBSERVATIONS...

CITY           SKY/WX    TMP DP  RH WIND       PRES   REMARKS
LAREDO         MOSUNNY   84  68  58 E5        29.77F
COTULLA        MOSUNNY   87  56  34 W5        29.75S
DEL RIO        SUNNY     89  35  14 N12G18    29.76F
MCALLEN        MOSUNNY   90  71  53 S5        29.73R HX  96
HEBBRONVILLE     N/A     81  67  64 CALM      29.78S
$$

...OTHER TEXAS OBSERVATIONS...

CITY           SKY/WX    TMP DP  RH WIND       PRES   REMARKS
BROWNSVILLE    PTSUNNY   82  75  79 SE13      29.74S
HOUSTON        CLOUDY    83  68  60 W6        29.72S
COL. STATION   MOSUNNY   79  58  48 W8        29.73S
AUSTIN         MOSUNNY   84  45  25 NW15G23   29.74R
WACO           SUNNY     79  50  36 NW15G22   29.75R
FORT WORTH     MOSUNNY   75  47  36 NW20      29.74R
WICHITA FALLS  MOSUNNY   69  47  45 NW21G31   29.80R
LUBBOCK        MOSUNNY   62  37  39 N18G29    29.98S
EL PASO        MOSUNNY   80  17   9 SW5       29.87F
$$

...MARINE OBSERVATIONS...

STATION/POSITION TIME  SKY/WX   TEMP    WIND        PRES    VSBY  WAVE   SWELL
                                AIR SEA DIR/SP/G                  HT/PER HT/PER
                 (UTC)          (F)     (DEG/KT/KT) (MB)    (MI)  (FT/S) (FT/S)
PORT ARANSAS     2300            74 75  150/  8/  9 1008.0F
BUOY 90 E PORT A 2250            76 75  170/  6/  8 1008.2S         2/ 6   2/ 6
BUOY 45 SE BAFFI 2250            75 76  140/  6/  8 1007.5R         3/ 7   3/ 7
BUOY 200 E PT IS 2250            80 79  120/  8/  8 1007.9F         3/ 7   3/ 7
BUOY 15 E GALVES 2250            76 73  190/ 12/ 14 1006.9F         2/ 7   2/ 7
$$


USA.gov is the U.S. government's official web portal to all federal, state and local government web resources and services.